Location: ??????
(56.0120°N, 39.1740°E)
Time: 09:06:53
(UTC+00:00)

Cosmos 2369 Rocket - Pass Details

Date: 14 April 2026
Orbit: 829 x 850 km, 71.0° (Epoch: 19 May)

Event Time Altitude Azimuth Distance (km) Brightness Sun altitude
Rises 16:57:38 0° 318° (NW) 3,390 6.8 -4.7°
Reaches altitude 10° 17:00:33 10° 332° (NNW) 2,452 5.6 -5.1°
Maximum altitude 17:05:06 25° 26° (NNE) 1,637 3.7 -5.6°
Drops below altitude 10° 17:09:40 10° 81° (E) 2,441 4.1 -6.2°
Enters shadow 17:11:21 - 90° (E) 2,971 4.5 -6.4°
